Weather History for Deadhorse, AK

Change the Weather History Date:

Wednesday, May 1, 2013

  Actual Average Record
Temperature  
Mean Temperature -12 °F -  
Max Temperature 1 °F 17 °F 32 °F (1989)
Min Temperature -24 °F 3 °F -24 °F (2013)
Degree Days  
Heating Degree Days 76    
Moisture  
Dew Point -17 °F    
Average Humidity 77    
Maximum Humidity 86    
Minimum Humidity 72    
Precipitation  
Precipitation 0.00 in - - ()
Sea Level Pressure  
Sea Level Pressure 30.26 in    
Wind  
Wind Speed 14 mph (SW)    
Max Wind Speed 22 mph    
Max Gust Speed -    
Visibility 6 miles    
Events Snow    
Averages and records for this station are not official NWS values.
T = Trace of Precipitation, MM = Missing Value Source: NWS Daily Summary

Daily Weather History Graph

Daily Weather History Graph

Search for Another Location

Airport:

Trip Planner

Search our weather history database for the weather conditions in past years. The results will help you decide how hot, cold, wet, or windy it might be!

Date:

Astronomy

May. 01, 2013 Rise Set
Actual Time 4:18 AM AKDT 11:28 PM AKDT
Civil Twilight 2:23 AM AKDT 1:18 AM AKDT
Nautical Twilight Sun does not rise Sun does not rise
Astronomical Twilight Sun does not rise Sun does not rise
Moon 4:38 AM AKDT (5/1) 10:19 AM AKDT (5/1)
Length of Visible Light 22h 55m
Length of Day
19h 09m
Waning Gibbous, 57% of the Moon is Illuminated
May 1
Waning Gibbous
May 2
Last Quarter
May 9
New
May 17
First Quarter
May 24
Full

Hourly Weather History & Observations

Time (AKDT) Temp. Windchill Dew Point Humidity Pressure Visibility Wind Dir Wind Speed Gust Speed Precip Events Conditions
12:53 AM -23.1 °F -42.3 °F -26.0 °F 86% 30.40 in 10.0 mi West 8.1 mph - N/A   Partly Cloudy
1:53 AM -24.0 °F -44.8 °F -27.9 °F 82% 30.39 in 10.0 mi West 9.2 mph - N/A   Clear
2:09 AM -23.8 °F -45.8 °F -27.4 °F 83% 30.37 in 10.0 mi West 10.4 mph - N/A   Scattered Clouds
2:53 AM -22.0 °F -42.3 °F -27.0 °F 77% 30.37 in 10.0 mi WSW 9.2 mph - N/A   Mostly Cloudy
3:53 AM -23.1 °F -46.0 °F -27.9 °F 78% 30.35 in 10.0 mi SW 11.5 mph - N/A   Mostly Cloudy
4:36 AM -22.0 °F -44.7 °F -27.4 °F 76% 30.33 in 10.0 mi SW 11.5 mph - N/A   Scattered Clouds
4:53 AM -22.0 °F -45.7 °F -27.0 °F 77% 30.33 in 10.0 mi SW 12.7 mph - N/A   Scattered Clouds
5:53 AM -18.9 °F -43.6 °F -25.1 °F 74% 30.32 in 3.0 mi SW 15.0 mph - N/A   Mostly Cloudy
6:00 AM -18.4 °F -42.9 °F -23.8 °F 76% 30.30 in 2.0 mi SW 15.0 mph - N/A   Overcast
6:07 AM -18.4 °F -42.9 °F -23.8 °F 76% 30.30 in 3.0 mi SW 15.0 mph - N/A   Mostly Cloudy
6:18 AM -18.4 °F -42.9 °F -23.8 °F 76% 30.30 in 3.0 mi SW 15.0 mph - N/A   Mostly Cloudy
6:25 AM -18.4 °F -43.7 °F -23.8 °F 76% 30.30 in 3.0 mi SW 16.1 mph - N/A   Mostly Cloudy
6:32 AM -18.4 °F -42.9 °F -23.8 °F 76% 30.30 in 3.0 mi SW 15.0 mph - N/A   Scattered Clouds
6:53 AM -18.0 °F -42.5 °F -23.1 °F 78% 30.30 in 3.0 mi SW 15.0 mph - N/A   Scattered Clouds
7:49 AM -16.6 °F -41.4 °F -22.0 °F 76% 30.27 in 2.0 mi SW 16.1 mph - N/A   Scattered Clouds
7:53 AM -17.0 °F -41.1 °F -22.0 °F 78% 30.28 in 2.0 mi SW 15.0 mph - N/A   Scattered Clouds
7:58 AM -16.6 °F -41.4 °F -22.0 °F 76% 30.27 in 2.0 mi SW 16.1 mph - N/A   Overcast
8:07 AM -16.6 °F -41.4 °F -22.0 °F 76% 30.27 in 1.8 mi SW 16.1 mph - N/A Snow Blowing Snow
8:12 AM -16.6 °F -41.4 °F -20.2 °F 84% 30.27 in 2.0 mi SW 16.1 mph - N/A Snow Blowing Snow
8:17 AM -14.8 °F -38.3 °F -20.2 °F 77% 30.27 in 2.0 mi SW 15.0 mph - N/A Snow Blowing Snow
8:24 AM -14.8 °F -39.8 °F -20.2 °F 77% 30.27 in 3.0 mi SW 17.3 mph - N/A Snow Blowing Snow
8:53 AM -14.1 °F -38.9 °F -20.0 °F 75% 30.27 in 3.0 mi SW 17.3 mph - N/A Snow Blowing Snow
9:53 AM -9.9 °F -34.2 °F -15.0 °F 78% 30.25 in 3.0 mi SW 18.4 mph - N/A Snow Blowing Snow
10:53 AM -7.1 °F -31.6 °F -13.0 °F 75% 30.24 in 3.0 mi SW 20.7 mph - 0.00 in Snow Blowing Snow
11:53 AM -6.0 °F -30.7 °F -11.9 °F 75% 30.23 in 6.0 mi SW 21.9 mph - N/A Snow Blowing Snow
12:53 PM -2.9 °F -26.1 °F -9.0 °F 75% 30.22 in 6.0 mi SW 20.7 mph - N/A Snow Blowing Snow
1:53 PM -2.0 °F -25.0 °F -8.0 °F 76% 30.21 in 6.0 mi SW 20.7 mph - N/A Snow Blowing Snow
2:53 PM -0.9 °F -22.4 °F -6.0 °F 79% 30.19 in 6.0 mi SW 18.4 mph - N/A Snow Blowing Snow
3:53 PM 1.0 °F -19.9 °F -5.1 °F 75% 30.18 in 6.0 mi SW 18.4 mph - N/A Snow Blowing Snow
4:53 PM 1.0 °F -20.4 °F -5.1 °F 75% 30.17 in 5.0 mi WSW 19.6 mph - N/A Snow Blowing Snow
5:53 PM 1.9 °F -19.2 °F -5.1 °F 72% 30.17 in 10.0 mi WSW 19.6 mph - N/A Snow Blowing Snow
6:53 PM 1.9 °F -18.1 °F -4.0 °F 76% 30.15 in 7.0 mi SW 17.3 mph - N/A   Overcast
7:53 PM 1.0 °F -18.0 °F -5.1 °F 75% 30.15 in 10.0 mi SW 15.0 mph - N/A   Overcast
8:53 PM -0.9 °F -19.1 °F -6.0 °F 79% 30.15 in 10.0 mi SW 12.7 mph - N/A   Overcast
9:53 PM -2.0 °F -21.9 °F -7.1 °F 79% 30.15 in 10.0 mi SSW 15.0 mph - N/A   Overcast
10:53 PM -2.0 °F -22.6 °F -7.1 °F 79% 30.15 in 10.0 mi SW 16.1 mph - N/A   Overcast
11:29 PM -2.2 °F -22.9 °F -7.6 °F 78% 30.14 in 10.0 mi SW 16.1 mph - N/A   Overcast
11:53 PM -2.0 °F -22.6 °F -7.1 °F 79% 30.15 in 10.0 mi SW 16.1 mph - N/A   Overcast